Time,TemperatureF,DewpointF,PressureIn,WindDirection,WindDirectionDegrees,WindSpeedMPH,WindSpeedGustMPH,Humidity,HourlyPrecipIn,Conditions,Clouds,dailyrainin,SoftwareType,DateUTC
2013-07-06 00:02:00,68.0,64.0,-100.00,SSE,150,4.0,6.0,89,0.00,,,-99.99,,2013-07-06 05:02:00,
2013-07-06 00:12:00,67.0,64.0,-100.00,SSE,150,4.0,5.0,89,0.00,,,-99.99,,2013-07-06 05:12:00,
2013-07-06 00:22:00,67.0,64.0,-100.00,SSE,150,4.0,5.0,90,0.00,,,-99.99,,2013-07-06 05:22:00,
2013-07-06 00:33:00,67.0,64.0,-100.00,SSE,160,4.0,5.0,90,0.00,,,-99.99,,2013-07-06 05:33:00,
2013-07-06 00:42:00,66.0,64.0,-100.00,SSE,155,4.0,6.0,91,0.00,,,-99.99,,2013-07-06 05:42:00,
2013-07-06 00:53:00,67.0,64.0,-100.00,SSE,155,5.0,6.0,91,0.00,,,-99.99,,2013-07-06 05:53:00,
2013-07-06 01:02:00,67.0,65.0,-100.00,SSE,155,5.0,6.0,91,0.00,,,-99.99,,2013-07-06 06:02:00,
2013-07-06 01:12:00,67.0,65.0,-100.00,SSE,155,5.0,7.0,91,0.00,,,-99.99,,2013-07-06 06:12:00,
2013-07-06 01:22:00,67.0,65.0,-100.00,SSE,150,5.0,6.0,91,0.00,,,-99.99,,2013-07-06 06:22:00,
2013-07-06 01:34:00,67.0,65.0,-100.00,SE,145,4.0,6.0,91,0.00,,,-99.99,,2013-07-06 06:34:00,
2013-07-06 01:43:00,67.0,64.0,-100.00,SE,145,4.0,6.0,91,0.00,,,-99.99,,2013-07-06 06:43:00,
2013-07-06 02:02:00,66.0,64.0,-100.00,SE,145,5.0,6.0,93,0.00,,,-99.99,,2013-07-06 07:02:00,
2013-07-06 02:12:00,66.0,64.0,-100.00,SE,145,4.0,6.0,93,0.00,,,-99.99,,2013-07-06 07:12:00,
2013-07-06 02:22:00,66.0,64.0,-100.00,SE,145,4.0,6.0,94,0.00,,,-99.99,,2013-07-06 07:22:00,
2013-07-06 02:33:00,65.0,64.0,-100.00,SSE,155,4.0,6.0,94,0.00,,,-99.99,,2013-07-06 07:33:00,
2013-07-06 02:44:00,65.0,64.0,-100.00,SE,145,4.0,4.0,95,0.00,,,-99.99,,2013-07-06 07:44:00,
2013-07-06 02:52:00,65.0,64.0,-100.00,SSE,165,3.0,5.0,95,0.00,,,-99.99,,2013-07-06 07:52:00,
2013-07-06 03:02:00,65.0,64.0,-100.00,SSE,160,4.0,4.0,95,0.00,,,-99.99,,2013-07-06 08:02:00,
2013-07-06 03:12:00,65.0,63.0,-100.00,SSE,150,4.0,4.0,95,0.00,,,-99.99,,2013-07-06 08:12:00,
2013-07-06 03:21:00,65.0,63.0,-100.00,SSE,150,4.0,4.0,95,0.00,,,-99.99,,2013-07-06 08:21:00,
2013-07-06 03:34:00,64.0,63.0,-100.00,SSE,155,3.0,4.0,95,0.00,,,-99.99,,2013-07-06 08:34:00,
2013-07-06 03:43:00,64.0,63.0,-100.00,SSE,155,3.0,4.0,96,0.00,,,-99.99,,2013-07-06 08:43:00,
2013-07-06 03:54:00,64.0,63.0,-100.00,SSE,150,3.0,4.0,96,0.00,,,-99.99,,2013-07-06 08:54:00,
2013-07-06 04:02:00,64.0,63.0,-100.00,SE,145,4.0,4.0,96,0.00,,,-99.99,,2013-07-06 09:02:00,
2013-07-06 04:11:00,64.0,63.0,-100.00,SE,145,4.0,4.0,96,0.00,,,-99.99,,2013-07-06 09:11:00,
2013-07-06 04:22:00,64.0,63.0,-100.00,SE,145,4.0,5.0,96,0.00,,,-99.99,,2013-07-06 09:22:00,
2013-07-06 04:33:00,63.0,63.0,-100.00,SE,145,4.0,4.0,97,0.00,,,-99.99,,2013-07-06 09:33:00,
2013-07-06 04:43:00,63.0,63.0,-100.00,SE,145,4.0,4.0,97,0.00,,,-99.99,,2013-07-06 09:43:00,
2013-07-06 04:52:00,63.0,62.0,-100.00,SE,145,4.0,4.0,97,0.00,,,-99.99,,2013-07-06 09:52:00,
2013-07-06 05:02:00,63.0,63.0,-100.00,SE,140,5.0,6.0,97,0.00,,,-99.99,,2013-07-06 10:02:00,
2013-07-06 05:11:00,63.0,63.0,-100.00,SSE,165,4.0,6.0,97,0.00,,,-99.99,,2013-07-06 10:11:00,
2013-07-06 05:22:00,63.0,63.0,-100.00,SSE,150,4.0,5.0,97,0.00,,,-99.99,,2013-07-06 10:22:00,
2013-07-06 05:33:00,63.0,62.0,-100.00,SSE,155,2.0,4.0,97,0.00,,,-99.99,,2013-07-06 10:33:00,
2013-07-06 05:42:00,63.0,62.0,-100.00,SSE,150,2.0,3.0,97,0.00,,,-99.99,,2013-07-06 10:42:00,
2013-07-06 05:53:00,63.0,62.0,-100.00,SSE,155,2.0,3.0,97,0.00,,,-99.99,,2013-07-06 10:53:00,
2013-07-06 06:01:00,63.0,62.0,-100.00,SE,140,4.0,4.0,97,0.00,,,-99.99,,2013-07-06 11:01:00,
2013-07-06 06:11:00,63.0,62.0,-100.00,SE,140,4.0,5.0,97,0.00,,,-99.99,,2013-07-06 11:11:00,
2013-07-06 06:22:00,63.0,62.0,-100.00,SSE,155,4.0,7.0,97,0.00,,,-99.99,,2013-07-06 11:22:00,
2013-07-06 06:33:00,63.0,63.0,-100.00,SE,145,4.0,5.0,97,0.00,,,-99.99,,2013-07-06 11:33:00,
2013-07-06 06:42:00,64.0,63.0,-100.00,SSE,150,3.0,6.0,97,0.00,,,-99.99,,2013-07-06 11:42:00,
2013-07-06 06:53:00,64.0,63.0,-100.00,SSE,160,3.0,4.0,97,0.00,,,-99.99,,2013-07-06 11:53:00,
2013-07-06 07:01:00,65.0,64.0,-100.00,SSE,160,2.0,4.0,96,0.00,,,-99.99,,2013-07-06 12:01:00,
2013-07-06 07:11:00,65.0,64.0,-100.00,SE,145,3.0,4.0,96,0.00,,,-99.99,,2013-07-06 12:11:00,
2013-07-06 07:22:00,66.0,65.0,-100.00,SE,145,4.0,6.0,95,0.00,,,-99.99,,2013-07-06 12:22:00,
2013-07-06 07:33:00,67.0,65.0,-100.00,SE,145,4.0,6.0,94,0.00,,,-99.99,,2013-07-06 12:33:00,
2013-07-06 07:43:00,67.0,65.0,-100.00,SSE,155,2.0,5.0,92,0.00,,,-99.99,,2013-07-06 12:43:00,
2013-07-06 07:52:00,69.0,66.0,-100.00,South,170,2.0,3.0,91,0.00,,,-99.99,,2013-07-06 12:52:00,
2013-07-06 08:12:00,71.0,65.0,-100.00,South,175,6.0,8.0,81,0.00,,,-99.99,,2013-07-06 13:12:00,
2013-07-06 08:22:00,72.0,65.0,-100.00,South,170,6.0,8.0,78,0.00,,,-99.99,,2013-07-06 13:22:00,
2013-07-06 08:33:00,72.0,65.0,-100.00,South,190,6.0,8.0,76,0.00,,,-99.99,,2013-07-06 13:33:00,
2013-07-06 08:43:00,73.0,64.0,-100.00,South,170,6.0,8.0,73,0.00,,,-99.99,,2013-07-06 13:43:00,
2013-07-06 08:52:00,74.0,64.0,-100.00,South,175,6.0,9.0,72,0.00,,,-99.99,,2013-07-06 13:52:00,
2013-07-06 09:11:00,76.0,65.0,-100.00,South,185,6.0,7.0,69,0.00,,,-99.99,,2013-07-06 14:11:00,
2013-07-06 09:22:00,76.0,64.0,-100.00,SSW,195,7.0,11.0,67,0.00,,,-99.99,,2013-07-06 14:22:00,
2013-07-06 09:34:00,76.0,64.0,-100.00,South,190,7.0,9.0,65,0.00,,,-99.99,,2013-07-06 14:34:00,
2013-07-06 09:42:00,77.0,65.0,-100.00,South,190,6.0,9.0,65,0.00,,,-99.99,,2013-07-06 14:42:00,
2013-07-06 10:02:00,78.0,65.0,-100.00,SSW,195,6.0,8.0,63,0.00,,,-99.99,,2013-07-06 15:02:00,
2013-07-06 10:12:00,79.0,65.0,-100.00,South,185,7.0,9.0,62,0.00,,,-99.99,,2013-07-06 15:12:00,
2013-07-06 10:22:00,79.0,65.0,-100.00,South,185,6.0,10.0,61,0.00,,,-99.99,,2013-07-06 15:22:00,
2013-07-06 10:33:00,80.0,65.0,-100.00,SSW,205,6.0,9.0,60,0.00,,,-99.99,,2013-07-06 15:33:00,
2013-07-06 10:43:00,81.0,66.0,-100.00,South,175,5.0,8.0,60,0.00,,,-99.99,,2013-07-06 15:43:00,
2013-07-06 10:53:00,81.0,66.0,-100.00,South,190,6.0,8.0,58,0.00,,,-99.99,,2013-07-06 15:53:00,
2013-07-06 11:07:00,82.0,66.0,-100.00,SSE,165,8.0,10.0,57,0.00,,,-99.99,,2013-07-06 16:07:00,
2013-07-06 11:15:00,83.0,66.0,-100.00,SSE,160,7.0,11.0,57,0.00,,,-99.99,,2013-07-06 16:15:00,
2013-07-06 11:24:00,83.0,66.0,-100.00,SSE,165,6.0,9.0,56,0.00,,,-99.99,,2013-07-06 16:24:00,
2013-07-06 11:52:00,84.0,66.0,-100.00,South,180,6.0,9.0,55,0.00,,,-99.99,,2013-07-06 16:52:00,
2013-07-06 12:12:00,85.0,66.0,-100.00,South,190,6.0,9.0,53,0.00,,,-99.99,,2013-07-06 17:12:00,
2013-07-06 12:22:00,85.0,67.0,-100.00,SSW,195,6.0,9.0,54,0.00,,,-99.99,,2013-07-06 17:22:00,
2013-07-06 12:31:00,86.0,66.0,-100.00,South,175,7.0,12.0,52,0.00,,,-99.99,,2013-07-06 17:31:00,
2013-07-06 12:43:00,86.0,66.0,-100.00,SSW,195,6.0,10.0,51,0.00,,,-99.99,,2013-07-06 17:43:00,
2013-07-06 12:51:00,86.0,65.0,-100.00,SSW,205,7.0,11.0,50,0.00,,,-99.99,,2013-07-06 17:51:00,
2013-07-06 13:10:00,87.0,66.0,-100.00,SSW,200,5.0,9.0,49,0.00,,,-99.99,,2013-07-06 18:10:00,
2013-07-06 13:23:00,87.0,66.0,-100.00,South,180,9.0,12.0,48,0.00,,,-99.99,,2013-07-06 18:23:00,
2013-07-06 13:44:00,88.0,65.0,-100.00,SSE,165,7.0,11.0,47,0.00,,,-99.99,,2013-07-06 18:44:00,
2013-07-06 13:52:00,88.0,65.0,-100.00,South,190,6.0,11.0,46,0.00,,,-99.99,,2013-07-06 18:52:00,
2013-07-06 14:11:00,89.0,65.0,-100.00,South,170,9.0,11.0,45,0.00,,,-99.99,,2013-07-06 19:11:00,
2013-07-06 14:29:00,89.0,64.0,-100.00,South,175,7.0,14.0,43,0.00,,,-99.99,,2013-07-06 19:29:00,
2013-07-06 15:12:00,90.0,65.0,-100.00,SSW,200,7.0,12.0,43,0.00,,,-99.99,,2013-07-06 20:12:00,
2013-07-06 15:30:00,89.0,64.0,-100.00,South,190,9.0,19.0,43,0.00,,,-99.99,,2013-07-06 20:30:00,
2013-07-06 15:44:00,89.0,64.0,-100.00,SSW,195,9.0,20.0,42,0.00,,,-99.99,,2013-07-06 20:44:00,
2013-07-06 15:52:00,90.0,64.0,-100.00,SSW,205,6.0,20.0,42,0.00,,,-99.99,,2013-07-06 20:52:00,
2013-07-06 16:12:00,90.0,63.0,-100.00,South,190,8.0,14.0,41,0.00,,,-99.99,,2013-07-06 21:12:00,
2013-07-06 16:19:00,90.0,65.0,-100.00,SSW,195,6.0,13.0,43,0.00,,,-99.99,,2013-07-06 21:19:00,
2013-07-06 16:32:00,90.0,65.0,-100.00,SSE,150,7.0,12.0,43,0.00,,,-99.99,,2013-07-06 21:32:00,
2013-07-06 16:43:00,90.0,65.0,-100.00,South,180,7.0,12.0,43,0.00,,,-99.99,,2013-07-06 21:43:00,
2013-07-06 16:52:00,90.0,64.0,-100.00,South,170,9.0,19.0,43,0.00,,,-99.99,,2013-07-06 21:52:00,
2013-07-06 17:22:00,90.0,63.0,-100.00,SSE,155,9.0,15.0,41,0.00,,,-99.99,,2013-07-06 22:22:00,
2013-07-06 17:31:00,90.0,63.0,-100.00,South,185,10.0,13.0,41,0.00,,,-99.99,,2013-07-06 22:31:00,
2013-07-06 18:09:00,89.0,63.0,-100.00,South,185,7.0,11.0,42,0.00,,,-99.99,,2013-07-06 23:09:00,
2013-07-06 18:45:00,89.0,63.0,-100.00,SSW,195,8.0,10.0,42,0.00,,,-99.99,,2013-07-06 23:45:00,
2013-07-06 19:30:00,87.0,64.0,-100.00,South,180,6.0,9.0,45,0.00,,,-99.99,,2013-07-07 00:30:00,
2013-07-06 19:43:00,87.0,64.0,-100.00,South,170,6.0,7.0,46,0.00,,,-99.99,,2013-07-07 00:43:00,
2013-07-06 19:52:00,86.0,64.0,-100.00,South,180,5.0,8.0,47,0.00,,,-99.99,,2013-07-07 00:52:00,
2013-07-06 20:21:00,84.0,65.0,-100.00,SSE,160,4.0,6.0,53,0.00,,,-99.99,,2013-07-07 01:21:00,
2013-07-06 20:31:00,83.0,66.0,-100.00,SSE,150,4.0,6.0,56,0.00,,,-99.99,,2013-07-07 01:31:00,
2013-07-06 20:42:00,82.0,67.0,-100.00,SSE,150,4.0,6.0,60,0.00,,,-99.99,,2013-07-07 01:42:00,
2013-07-06 20:51:00,80.0,67.0,-100.00,SE,145,4.0,5.0,64,0.00,,,-99.99,,2013-07-07 01:51:00,
2013-07-06 20:59:00,79.0,68.0,-100.00,SE,145,4.0,5.0,68,0.00,,,-99.99,,2013-07-07 01:59:00,
2013-07-06 21:11:00,79.0,68.0,-100.00,SSE,150,4.0,5.0,70,0.00,,,-99.99,,2013-07-07 02:11:00,
2013-07-06 21:19:00,78.0,68.0,-100.00,SE,145,4.0,6.0,73,0.00,,,-99.99,,2013-07-07 02:19:00,
2013-07-06 21:48:00,75.0,69.0,-100.00,SSE,150,4.0,5.0,79,0.00,,,-99.99,,2013-07-07 02:48:00,
2013-07-06 22:10:00,74.0,69.0,-100.00,SSE,150,4.0,6.0,82,0.00,,,-99.99,,2013-07-07 03:10:00,
2013-07-06 22:19:00,74.0,69.0,-100.00,SSE,150,4.0,5.0,83,0.00,,,-99.99,,2013-07-07 03:19:00,
2013-07-06 22:38:00,73.0,69.0,-100.00,SE,145,4.0,6.0,86,0.00,,,-99.99,,2013-07-07 03:38:00,
2013-07-06 22:48:00,73.0,69.0,-100.00,SSE,150,4.0,5.0,86,0.00,,,-99.99,,2013-07-07 03:48:00,
2013-07-06 23:02:00,72.0,69.0,-100.00,SSE,155,4.0,4.0,88,0.00,,,-99.99,,2013-07-07 04:02:00,
2013-07-06 23:11:00,72.0,69.0,-100.00,SSE,150,4.0,5.0,88,0.00,,,-99.99,,2013-07-07 04:11:00,
2013-07-06 23:21:00,72.0,69.0,-100.00,SSE,150,4.0,6.0,89,0.00,,,-99.99,,2013-07-07 04:21:00,
2013-07-06 23:31:00,72.0,69.0,-100.00,SSE,150,5.0,6.0,89,0.00,,,-99.99,,2013-07-07 04:31:00,
2013-07-06 23:41:00,72.0,69.0,-100.00,SE,145,4.0,6.0,89,0.00,,,-99.99,,2013-07-07 04:41:00,